Flag for Iran Weather past 2 weeks in Mashhad, Iran

Now
52 °F

Clear.


Feels Like: 48 °F
Forecast: 38 / 51 °F
Wind: 12 mph from Southeast

Location: Mashhad Airport

Current Time: Mar 29, 2015 at 9:36:30 PM

Latest Report: Mar 29, 2015 at 9:00 PM


Visibility: 10 mi

Pressure: 30.09 "Hg

Humidity: 62%

Dew point: 39 °F

Location of MashhadLocation

Historic Weather in Mashhad — Graph

°F

Mashhad temperature yesterday

Maximum temperature yesterday: 61 °F (at 5:30 PM)
Minimum temperature yesterday: 41 °F (at 12:00 AM)
Average temperature yesterday: 49 °F

Past Weeks' High & Low Weather Summary

 TemperatureHumidityPressure
High79 °F (Mar 21, 2:00 PM)100% (Mar 15, 4:20 AM)30.33 "Hg (Mar 15, 4:20 AM)
Low36 °F (Mar 16, 4:00 AM)21% (Mar 21, 3:30 PM)29.62 "Hg (Mar 23, 4:00 PM)
Average51 °F65%30.13 "Hg
* Reported Mar 14 7:30 PM — Mar 29 8:30 PM, Mashhad, Weather by CustomWeather, © 2015

Note: Actual official high and low records may vary slightly from our data, if they occured in-between our weather recording intervals... More about our weather records

Advertising

Mashhad weather history for previous 24 hours

 ConditionsComfort  
Time TempWeatherWind HumidityBarometerVisibility
8:30 PM
Sun, Mar 29
52 °FClear.12 mph67%30.09 "Hg10 mi
8:00 PM52 °FSunny.7 mph67%30.07 "Hg10 mi
7:30 PM54 °FSunny.9 mph63%30.09 "Hg10 mi
7:00 PM57 °FSunny.9 mph59%30.04 "Hg10 mi
6:30 PM57 °FSunny.16 mph63%30.04 "Hg10 mi
6:00 PM61 °FSunny.16 mph52%30.04 "Hg10 mi
5:30 PM63 °FSunny.21 mph45%30.04 "Hg10 mi
5:00 PM64 °FSunny.14 mph46%30.01 "Hg10 mi
4:30 PM64 °FPartly sunny.12 mph40%30.01 "HgN/A
4:00 PM64 °FPartly sunny.14 mph40%30.01 "HgN/A
3:30 PM64 °FPartly sunny.12 mph37%30.04 "HgN/A
3:00 PM63 °FPartly sunny.9 mph49%30.04 "HgN/A
2:30 PM61 °FPartly sunny.7 mph52%30.04 "HgN/A
2:00 PM61 °FPartly sunny.5 mph52%30.07 "HgN/A
1:30 PM61 °FPartly sunny.7 mph45%30.07 "HgN/A
12:50 PM61 °FSunny.9 mph55%30.07 "Hg10 mi
12:30 PM59 °FSunny.9 mph55%30.07 "Hg10 mi
12:00 PM59 °FSunny.7 mph55%30.09 "Hg10 mi
11:20 AM57 °FSunny.7 mph55%30.12 "Hg10 mi
11:00 AM57 °FSunny.9 mph55%30.12 "Hg10 mi
10:30 AM55 °FSunny.5 mph59%30.12 "Hg10 mi
10:00 AM54 °FSunny.7 mph63%30.15 "Hg10 mi
9:30 AM52 °FSunny.5 mph67%30.15 "Hg10 mi
8:50 AM50 °FSunny.5 mph71%30.12 "Hg10 mi
8:30 AM50 °FSunny.9 mph71%30.12 "Hg10 mi
8:00 AM46 °FSunny.7 mph76%30.12 "Hg10 mi
7:30 AM43 °FClear.5 mph81%30.12 "Hg4 mi
7:00 AM41 °FClear.No wind93%30.12 "Hg10 mi
6:30 AM41 °FClear.No wind87%30.12 "Hg5 mi
6:00 AM41 °FClear.No wind87%30.12 "Hg10 mi
5:30 AM41 °FClear.5 mph87%30.12 "Hg10 mi
5:00 AM41 °FClear.5 mph87%30.12 "Hg10 mi
4:30 AM41 °FClear.No wind87%30.12 "Hg10 mi
4:00 AM43 °FClear.No wind81%30.12 "Hg10 mi
3:30 AM43 °FClear.5 mph81%30.12 "Hg10 mi
3:00 AM43 °FClear.5 mph81%30.12 "Hg10 mi
2:30 AM43 °FClear.No wind87%30.15 "Hg10 mi
2:00 AM43 °FClear.No wind76%30.15 "Hg10 mi
1:30 AM43 °FClear.5 mph76%30.15 "Hg10 mi
1:00 AM45 °FClear.7 mph76%30.15 "Hg10 mi
12:30 AM46 °FClear.5 mph66%30.15 "Hg10 mi
12:00 AM46 °FClear.9 mph66%30.15 "Hg10 mi
11:30 PM
Sat, Mar 28
46 °FClear.7 mph66%30.15 "Hg10 mi
11:00 PM46 °FClear.9 mph66%30.15 "Hg10 mi
10:30 PM48 °FClear.7 mph62%30.18 "Hg10 mi
9:53 PM48 °FClear.7 mph66%30.15 "Hg10 mi
9:30 PM48 °FClear.7 mph71%30.15 "Hg10 mi
Weather by CustomWeather, © 2015

See weather overviewHow to use our weather pages